Location: Unspecified
(48.2082°N, 0.0000°E)
Time: 15:59:40
(UTC+00:00)

S-56A Canister/Altair - Pass Details

Date: 20 June 2019
Orbit: 632 x 2500 km, 38.9° (Epoch: 20 July)

Event Time Altitude Azimuth Distance (km) Brightness Sun altitude
Rises 18:45:27 0° 255° (WSW) 4,168 12.2 10.4°
Reaches altitude 10° 18:48:59 10° 247° (WSW) 2,900 11.2 9.8°
Maximum altitude 18:54:48 33° 186° (S) 1,377 8.8 9.0°
Drops below altitude 10° 18:59:14 10° 122° (ESE) 2,179 9.3 8.3°
Sets 19:01:31 0° 112° (ESE) 2,997 9.9 8.0°
